Location: Gorze? G�rny
(49.8500°N, 19.5000°E)
Time: 03:36:19
(UTC+00:00)

Cosmos 1900 - Pass Details

Date: 13 May 2021
Orbit: 689 x 733 km, 66.1° (Epoch: 20 June)

Event Time Altitude Azimuth Distance (km) Brightness Sun altitude
Exits shadow 21:20:04 16° 221° (SW) 1,854 6.2 -19.4°
Maximum altitude 21:24:11 81° 307° (NW) 738 4.4 -19.6°
Drops below altitude 10° 21:29:15 10° 36° (NE) 2,209 7.3 -19.9°
Sets 21:31:36 0° 38° (NE) 3,126 8.2 -20.0°
